Powrót do katalogu

COSMOS 1490

GLONASS

AktywnyNawigacjaMEO
NORAD 14258·PAYLOAD·🇷🇺 Russia

Wystrzelony Aug 10, 1983 z Baikonur Cosmodrome

Loading…

Następne Przeloty (najbliższe 24 godziny)

TLE

ŚwieżeSource: Space-Track

Epoka: Sep 12, 2026, 06:57 UTC

1 14258U 83084A   26255.29000836 -.00000002  00000-0  00000-0 0  9994
2 14258  64.9083  69.8163 0015064  19.7046 337.5928  2.13103275335291

Śledź COSMOS 1490 w czasie rzeczywistym z AllMySat

Download on the App Store